Year,Month,Day,Hour,Minute,Value (Times are PST for barometer in hPa)
2020,11,13,00,00,994.21
2020,11,13,00,01,994.18
2020,11,13,00,02,994.18
2020,11,13,00,03,994.18
2020,11,13,00,04,994.18
2020,11,13,00,05,994.18
2020,11,13,00,06,994.18
2020,11,13,00,07,994.18
2020,11,13,00,08,994.18
2020,11,13,00,09,994.18
2020,11,13,00,10,994.18
2020,11,13,00,11,994.18
2020,11,13,00,12,994.18
2020,11,13,00,13,994.18
2020,11,13,00,14,994.18
2020,11,13,00,15,993.43
2020,11,13,00,16,993.43
2020,11,13,00,17,993.43
2020,11,13,00,18,993.43
2020,11,13,00,19,993.43
2020,11,13,00,20,993.43
2020,11,13,00,21,993.43
2020,11,13,00,22,993.43
2020,11,13,00,23,993.43
2020,11,13,00,24,993.43
2020,11,13,00,25,993.43
2020,11,13,00,26,993.43
2020,11,13,00,27,993.43
2020,11,13,00,28,993.43
2020,11,13,00,29,993.43
2020,11,13,00,30,992.86
2020,11,13,00,31,992.86
2020,11,13,00,32,992.86
2020,11,13,00,33,992.86
2020,11,13,00,34,992.86
2020,11,13,00,35,992.86
2020,11,13,00,36,992.86
2020,11,13,00,37,992.86
2020,11,13,00,38,992.86
2020,11,13,00,39,992.86
2020,11,13,00,40,992.86
2020,11,13,00,41,992.86
2020,11,13,00,42,992.86
2020,11,13,00,43,992.86
2020,11,13,00,44,992.86
2020,11,13,00,45,992.37
2020,11,13,00,46,992.35
2020,11,13,00,47,992.35
2020,11,13,00,48,992.35
2020,11,13,00,49,992.35
2020,11,13,00,50,992.35
2020,11,13,00,51,992.35
2020,11,13,00,52,992.35
2020,11,13,00,53,992.35
2020,11,13,00,54,992.35
2020,11,13,00,55,992.35
2020,11,13,00,56,992.35
2020,11,13,00,57,992.35
2020,11,13,00,58,992.35
2020,11,13,00,59,992.35
2020,11,13,01,00,991.67
2020,11,13,01,01,991.67
2020,11,13,01,02,991.67
2020,11,13,01,03,991.67
2020,11,13,01,04,991.67
2020,11,13,01,05,991.67
2020,11,13,01,06,991.67
2020,11,13,01,07,991.67
2020,11,13,01,08,991.67
2020,11,13,01,09,991.67
2020,11,13,01,10,991.67
2020,11,13,01,11,991.67
2020,11,13,01,12,991.67
2020,11,13,01,13,991.67
2020,11,13,01,14,991.67
2020,11,13,01,15,990.89
2020,11,13,01,16,990.89
2020,11,13,01,17,990.89
2020,11,13,01,18,990.89
2020,11,13,01,19,990.89
2020,11,13,01,20,990.89
2020,11,13,01,21,990.89
2020,11,13,01,22,990.89
2020,11,13,01,23,990.89
2020,11,13,01,24,990.89
2020,11,13,01,25,990.89
2020,11,13,01,26,990.89
2020,11,13,01,27,990.89
2020,11,13,01,28,990.89
2020,11,13,01,29,990.89
2020,11,13,01,30,990.21
2020,11,13,01,31,990.21
2020,11,13,01,32,990.21
2020,11,13,01,33,990.21
2020,11,13,01,34,990.21
2020,11,13,01,35,990.21
2020,11,13,01,36,990.21
2020,11,13,01,37,990.21
2020,11,13,01,38,990.21
2020,11,13,01,39,990.21
2020,11,13,01,40,990.21
2020,11,13,01,41,990.21
2020,11,13,01,42,990.21
2020,11,13,01,43,990.21
2020,11,13,01,44,990.21
2020,11,13,01,45,989.33
2020,11,13,01,46,989.33
2020,11,13,01,47,989.33
2020,11,13,01,48,989.33
2020,11,13,01,49,989.33
2020,11,13,01,50,989.33
2020,11,13,01,51,989.33
2020,11,13,01,52,989.33
2020,11,13,01,53,989.33
2020,11,13,01,54,989.33
2020,11,13,01,55,989.33
2020,11,13,01,56,989.33
2020,11,13,01,57,989.33
2020,11,13,01,58,989.33
2020,11,13,01,59,989.33
2020,11,13,02,00,988.96
2020,11,13,02,01,988.96
2020,11,13,02,02,988.96
2020,11,13,02,03,988.96
2020,11,13,02,04,988.96
2020,11,13,02,05,988.96
2020,11,13,02,06,988.96
2020,11,13,02,07,988.96
2020,11,13,02,08,988.96
2020,11,13,02,09,988.96
2020,11,13,02,10,988.96
2020,11,13,02,11,988.96
2020,11,13,02,12,988.96
2020,11,13,02,13,988.96
2020,11,13,02,14,988.96
2020,11,13,02,15,988.18
2020,11,13,02,16,988.18
2020,11,13,02,17,988.18
2020,11,13,02,18,988.18
2020,11,13,02,19,988.18
2020,11,13,02,20,988.18
2020,11,13,02,21,988.18
2020,11,13,02,22,988.18
2020,11,13,02,23,988.18
2020,11,13,02,24,988.18
2020,11,13,02,25,988.18
2020,11,13,02,26,988.18
2020,11,13,02,27,988.18
2020,11,13,02,28,988.18
2020,11,13,02,29,988.18
2020,11,13,02,30,987.98
2020,11,13,02,31,987.98
2020,11,13,02,32,987.98
2020,11,13,02,33,987.98
2020,11,13,02,34,987.98
2020,11,13,02,35,987.98
2020,11,13,02,36,987.98
2020,11,13,02,37,987.98
2020,11,13,02,38,987.98
2020,11,13,02,39,987.98
2020,11,13,02,40,987.98
2020,11,13,02,41,987.98
2020,11,13,02,42,987.98
2020,11,13,02,43,987.98
2020,11,13,02,44,987.98
2020,11,13,02,45,987.47
2020,11,13,02,46,987.47
2020,11,13,02,47,987.47
2020,11,13,02,48,987.47
2020,11,13,02,49,987.47
2020,11,13,02,50,987.47
2020,11,13,02,51,987.47
2020,11,13,02,52,987.47
2020,11,13,02,53,987.47
2020,11,13,02,54,987.47
2020,11,13,02,55,987.47
2020,11,13,02,56,987.47
2020,11,13,02,57,987.47
2020,11,13,02,58,987.47
2020,11,13,02,59,987.47
2020,11,13,03,00,986.59
2020,11,13,03,01,986.59
2020,11,13,03,02,986.59
2020,11,13,03,03,986.59
2020,11,13,03,04,986.59
2020,11,13,03,05,986.59
2020,11,13,03,06,986.59
2020,11,13,03,07,986.59
2020,11,13,03,08,986.59
2020,11,13,03,09,986.59
2020,11,13,03,10,986.59
2020,11,13,03,11,986.59
2020,11,13,03,12,986.59
2020,11,13,03,13,986.59
2020,11,13,03,14,986.59
2020,11,13,03,15,986.12
2020,11,13,03,16,986.12
2020,11,13,03,17,986.12
2020,11,13,03,18,986.12
2020,11,13,03,19,986.12
2020,11,13,03,20,986.12
2020,11,13,03,21,986.12
2020,11,13,03,22,986.12
2020,11,13,03,23,986.12
2020,11,13,03,24,986.12
2020,11,13,03,25,986.12
2020,11,13,03,26,986.12
2020,11,13,03,27,986.12
2020,11,13,03,28,986.12
2020,11,13,03,29,986.12
2020,11,13,03,30,985.54
2020,11,13,03,31,985.51
2020,11,13,03,32,985.51
2020,11,13,03,33,985.51
2020,11,13,03,34,985.51
2020,11,13,03,35,985.51
2020,11,13,03,36,985.51
2020,11,13,03,37,985.51
2020,11,13,03,38,985.51
2020,11,13,03,39,985.51
2020,11,13,03,40,985.51
2020,11,13,03,41,985.51
2020,11,13,03,42,985.51
2020,11,13,03,43,985.51
2020,11,13,03,44,985.51
2020,11,13,03,45,985.13
2020,11,13,03,46,985.13
2020,11,13,03,47,985.13
2020,11,13,03,48,985.13
2020,11,13,03,49,985.13
2020,11,13,03,50,985.13
2020,11,13,03,51,985.13
2020,11,13,03,52,985.13
2020,11,13,03,53,985.13
2020,11,13,03,54,985.13
2020,11,13,03,55,985.13
2020,11,13,03,56,985.13
2020,11,13,03,57,985.13
2020,11,13,03,58,985.13
2020,11,13,03,59,985.13
2020,11,13,04,00,984.59
2020,11,13,04,01,984.59
2020,11,13,04,02,984.59
2020,11,13,04,03,984.59
2020,11,13,04,04,984.59
2020,11,13,04,05,984.59
2020,11,13,04,06,984.59
2020,11,13,04,07,984.59
2020,11,13,04,08,984.59
2020,11,13,04,09,984.59
2020,11,13,04,10,984.59
2020,11,13,04,11,984.59
2020,11,13,04,12,984.59
2020,11,13,04,13,984.59
2020,11,13,04,14,984.59
2020,11,13,04,15,984.14
2020,11,13,04,16,984.12
2020,11,13,04,17,984.12
2020,11,13,04,18,984.12
2020,11,13,04,19,984.12
2020,11,13,04,20,984.12
2020,11,13,04,21,984.12
2020,11,13,04,22,984.12
2020,11,13,04,23,984.12
2020,11,13,04,24,984.12
2020,11,13,04,25,984.12
2020,11,13,04,26,984.12
2020,11,13,04,27,984.12
2020,11,13,04,28,984.12
2020,11,13,04,29,984.12
2020,11,13,04,30,984.29
2020,11,13,04,31,984.29
2020,11,13,04,32,984.29
2020,11,13,04,33,984.29
2020,11,13,04,34,984.29
2020,11,13,04,35,984.29
2020,11,13,04,36,984.29
2020,11,13,04,37,984.29
2020,11,13,04,38,984.29
2020,11,13,04,39,984.29
2020,11,13,04,40,984.29
2020,11,13,04,41,984.29
2020,11,13,04,42,984.29
2020,11,13,04,43,984.29
2020,11,13,04,44,984.29
2020,11,13,04,45,983.98
2020,11,13,04,46,983.98
2020,11,13,04,47,983.98
2020,11,13,04,48,983.98
2020,11,13,04,49,983.98
2020,11,13,04,50,983.98
2020,11,13,04,51,983.98
2020,11,13,04,52,983.98
2020,11,13,04,53,983.98
2020,11,13,04,54,983.98
2020,11,13,04,55,983.98
2020,11,13,04,56,983.98
2020,11,13,04,57,983.98
2020,11,13,04,58,983.98
2020,11,13,04,59,983.98
2020,11,13,05,00,984.22
2020,11,13,05,01,984.22
2020,11,13,05,02,984.22
2020,11,13,05,03,984.22
2020,11,13,05,04,984.22
2020,11,13,05,05,984.22
2020,11,13,05,06,984.22
2020,11,13,05,07,984.22
2020,11,13,05,08,984.22
2020,11,13,05,09,984.22
2020,11,13,05,10,984.22
2020,11,13,05,11,984.22
2020,11,13,05,12,984.22
2020,11,13,05,13,984.22
2020,11,13,05,14,984.22
2020,11,13,05,15,983.93
2020,11,13,05,16,983.92
2020,11,13,05,17,983.92
2020,11,13,05,18,983.92
2020,11,13,05,19,983.92
2020,11,13,05,20,983.92
2020,11,13,05,21,983.92
2020,11,13,05,22,983.92
2020,11,13,05,23,983.92
2020,11,13,05,24,983.92
2020,11,13,05,25,983.92
2020,11,13,05,26,983.92
2020,11,13,05,27,983.92
2020,11,13,05,28,983.92
2020,11,13,05,29,983.92
2020,11,13,05,30,983.79
2020,11,13,05,31,983.78
2020,11,13,05,32,983.78
2020,11,13,05,33,983.78
2020,11,13,05,34,983.78
2020,11,13,05,35,983.78
2020,11,13,05,36,983.78
2020,11,13,05,37,983.78
2020,11,13,05,38,983.78
2020,11,13,05,39,983.78
2020,11,13,05,40,983.78
2020,11,13,05,41,983.78
2020,11,13,05,42,983.78
2020,11,13,05,43,983.78
2020,11,13,05,44,983.78
2020,11,13,05,45,983.31
2020,11,13,05,46,983.31
2020,11,13,05,47,983.31
2020,11,13,05,48,983.31
2020,11,13,05,49,983.31
2020,11,13,05,50,983.31
2020,11,13,05,51,983.31
2020,11,13,05,52,983.31
2020,11,13,05,53,983.31
2020,11,13,05,54,983.31
2020,11,13,05,55,983.31
2020,11,13,05,56,983.31
2020,11,13,05,57,983.31
2020,11,13,05,58,983.31
2020,11,13,05,59,983.31
2020,11,13,06,00,983.57
2020,11,13,06,01,983.58
2020,11,13,06,02,983.58
2020,11,13,06,03,983.58
2020,11,13,06,04,983.58
2020,11,13,06,05,983.58
2020,11,13,06,06,983.58
2020,11,13,06,07,983.58
2020,11,13,06,08,983.58
2020,11,13,06,09,983.58
2020,11,13,06,10,983.58
2020,11,13,06,11,983.58
2020,11,13,06,12,983.58
2020,11,13,06,13,983.58
2020,11,13,06,14,983.58
2020,11,13,06,15,983.41
2020,11,13,06,16,983.41
2020,11,13,06,17,983.41
2020,11,13,06,18,983.41
2020,11,13,06,19,983.41
2020,11,13,06,20,983.41
2020,11,13,06,21,983.41
2020,11,13,06,22,983.41
2020,11,13,06,23,983.41
2020,11,13,06,24,983.41
2020,11,13,06,25,983.41
2020,11,13,06,26,983.41
2020,11,13,06,27,983.41
2020,11,13,06,28,983.41
2020,11,13,06,29,983.41
2020,11,13,06,30,983.41
2020,11,13,06,31,983.41
2020,11,13,06,32,983.41
2020,11,13,06,33,983.41
2020,11,13,06,34,983.41
2020,11,13,06,35,983.41
2020,11,13,06,36,983.41
2020,11,13,06,37,983.41
2020,11,13,06,38,983.41
2020,11,13,06,39,983.41
2020,11,13,06,40,983.41
2020,11,13,06,41,983.41
2020,11,13,06,42,983.41
2020,11,13,06,43,983.41
2020,11,13,06,44,983.41
2020,11,13,06,45,983.60
2020,11,13,06,46,983.61
2020,11,13,06,47,983.61
2020,11,13,06,48,983.61
2020,11,13,06,49,983.61
2020,11,13,06,50,983.61
2020,11,13,06,51,983.61
2020,11,13,06,52,983.61
2020,11,13,06,53,983.61
2020,11,13,06,54,983.61
2020,11,13,06,55,983.61
2020,11,13,06,56,983.61
2020,11,13,06,57,983.61
2020,11,13,06,58,983.61
2020,11,13,06,59,983.61
2020,11,13,07,00,983.52
2020,11,13,07,01,983.51
2020,11,13,07,02,983.51
2020,11,13,07,03,983.51
2020,11,13,07,04,983.51
2020,11,13,07,05,983.51
2020,11,13,07,06,983.51
2020,11,13,07,07,983.51
2020,11,13,07,08,983.51
2020,11,13,07,09,983.51
2020,11,13,07,10,983.51
2020,11,13,07,11,983.51
2020,11,13,07,12,983.51
2020,11,13,07,13,983.51
2020,11,13,07,14,983.51
2020,11,13,07,15,983.88
2020,11,13,07,16,983.88
2020,11,13,07,17,983.88
2020,11,13,07,18,983.88
2020,11,13,07,19,983.88
2020,11,13,07,20,983.88
2020,11,13,07,21,983.88
2020,11,13,07,22,983.88
2020,11,13,07,23,983.88
2020,11,13,07,24,983.88
2020,11,13,07,25,983.88
2020,11,13,07,26,983.88
2020,11,13,07,27,983.88
2020,11,13,07,28,983.88
2020,11,13,07,29,983.88
2020,11,13,07,30,984.07
2020,11,13,07,31,984.08
2020,11,13,07,32,984.08
2020,11,13,07,33,984.08
2020,11,13,07,34,984.08
2020,11,13,07,35,984.08
2020,11,13,07,36,984.08
2020,11,13,07,37,984.08
2020,11,13,07,38,984.08
2020,11,13,07,39,984.08
2020,11,13,07,40,984.08
2020,11,13,07,41,984.08
2020,11,13,07,42,984.08
2020,11,13,07,43,984.08
2020,11,13,07,44,984.08
2020,11,13,07,45,984.18
2020,11,13,07,46,984.19
2020,11,13,07,47,984.19
2020,11,13,07,48,984.19
2020,11,13,07,49,984.19
2020,11,13,07,50,984.19
2020,11,13,07,51,984.19
2020,11,13,07,52,984.19
2020,11,13,07,53,984.19
2020,11,13,07,54,984.19
2020,11,13,07,55,984.19
2020,11,13,07,56,984.19
2020,11,13,07,57,984.19
2020,11,13,07,58,984.19
2020,11,13,07,59,984.19
2020,11,13,08,00,984.25
2020,11,13,08,01,984.25
2020,11,13,08,02,984.25
2020,11,13,08,03,984.25
2020,11,13,08,04,984.25
2020,11,13,08,05,984.25
2020,11,13,08,06,984.25
2020,11,13,08,07,984.25
2020,11,13,08,08,984.25
2020,11,13,08,09,984.25
2020,11,13,08,10,984.25
2020,11,13,08,11,984.25
2020,11,13,08,12,984.25
2020,11,13,08,13,984.25
2020,11,13,08,14,984.25
2020,11,13,08,15,984.36
2020,11,13,08,16,984.36
2020,11,13,08,17,984.36
2020,11,13,08,18,984.36
2020,11,13,08,19,984.36
2020,11,13,08,20,984.36
2020,11,13,08,21,984.36
2020,11,13,08,22,984.36
2020,11,13,08,23,984.36
2020,11,13,08,24,984.36
2020,11,13,08,25,984.36
2020,11,13,08,26,984.36
2020,11,13,08,27,984.36
2020,11,13,08,28,984.36
2020,11,13,08,29,984.36
2020,11,13,08,30,984.29
2020,11,13,08,31,984.29
2020,11,13,08,32,984.29
2020,11,13,08,33,984.29
2020,11,13,08,34,984.29
2020,11,13,08,35,984.29
2020,11,13,08,36,984.29
2020,11,13,08,37,984.29
2020,11,13,08,38,984.29
2020,11,13,08,39,984.29
2020,11,13,08,40,984.29
2020,11,13,08,41,984.29
2020,11,13,08,42,984.29
2020,11,13,08,43,984.29
2020,11,13,08,44,984.29
2020,11,13,08,45,984.39
2020,11,13,08,46,984.39
2020,11,13,08,47,984.39
2020,11,13,08,48,984.39
2020,11,13,08,49,984.39
2020,11,13,08,50,984.39
2020,11,13,08,51,984.39
2020,11,13,08,52,984.39
2020,11,13,08,53,984.39
2020,11,13,08,54,984.39
2020,11,13,08,55,984.39
2020,11,13,08,56,984.39
2020,11,13,08,57,984.39
2020,11,13,08,58,984.39
2020,11,13,08,59,984.39
2020,11,13,09,00,984.46
2020,11,13,09,01,984.46
2020,11,13,09,02,984.46
2020,11,13,09,03,984.46
2020,11,13,09,04,984.46
2020,11,13,09,05,984.46
2020,11,13,09,06,984.46
2020,11,13,09,07,984.46
2020,11,13,09,08,984.46
2020,11,13,09,09,984.46
2020,11,13,09,10,984.46
2020,11,13,09,11,984.46
2020,11,13,09,12,984.46
2020,11,13,09,13,984.46
2020,11,13,09,14,984.46
2020,11,13,09,15,984.46
2020,11,13,09,16,984.46
2020,11,13,09,17,984.46
2020,11,13,09,18,984.46
2020,11,13,09,19,984.46
2020,11,13,09,20,984.46
2020,11,13,09,21,984.46
2020,11,13,09,22,984.46
2020,11,13,09,23,984.46
2020,11,13,09,24,984.46
2020,11,13,09,25,984.46
2020,11,13,09,26,984.46
2020,11,13,09,27,984.46
2020,11,13,09,28,984.46
2020,11,13,09,29,984.46
2020,11,13,09,30,984.84
2020,11,13,09,31,984.86
2020,11,13,09,32,984.86
2020,11,13,09,33,984.86
2020,11,13,09,34,984.86
2020,11,13,09,35,984.86
2020,11,13,09,36,984.86
2020,11,13,09,37,984.86
2020,11,13,09,38,984.86
2020,11,13,09,39,984.86
2020,11,13,09,40,984.86
2020,11,13,09,41,984.86
2020,11,13,09,42,984.86
2020,11,13,09,43,984.86
2020,11,13,09,44,984.86
2020,11,13,09,45,984.99
2020,11,13,09,46,985.00
2020,11,13,09,47,985.00
2020,11,13,09,48,985.00
2020,11,13,09,49,985.00
2020,11,13,09,50,985.00
2020,11,13,09,51,985.00
2020,11,13,09,52,985.00
2020,11,13,09,53,985.00
2020,11,13,09,54,985.00
2020,11,13,09,55,985.00
2020,11,13,09,56,985.00
2020,11,13,09,57,985.00
2020,11,13,09,58,985.00
2020,11,13,09,59,985.00
2020,11,13,10,00,985.45
2020,11,13,10,01,985.47
2020,11,13,10,02,985.47
2020,11,13,10,03,985.47
2020,11,13,10,04,985.47
2020,11,13,10,05,985.47
2020,11,13,10,06,985.47
2020,11,13,10,07,985.47
2020,11,13,10,08,985.47
2020,11,13,10,09,985.47
2020,11,13,10,10,985.47
2020,11,13,10,11,985.47
2020,11,13,10,12,985.47
2020,11,13,10,13,985.47
2020,11,13,10,14,985.47
2020,11,13,10,15,985.83
2020,11,13,10,16,985.85
2020,11,13,10,17,985.85
2020,11,13,10,18,985.85
2020,11,13,10,19,985.85
2020,11,13,10,20,985.85
2020,11,13,10,21,985.85
2020,11,13,10,22,985.85
2020,11,13,10,23,985.85
2020,11,13,10,24,985.85
2020,11,13,10,25,985.85
2020,11,13,10,26,985.85
2020,11,13,10,27,985.85
2020,11,13,10,28,985.85
2020,11,13,10,29,985.85
2020,11,13,10,30,986.59
2020,11,13,10,31,986.62
2020,11,13,10,32,986.62
2020,11,13,10,33,986.62
2020,11,13,10,34,986.62
2020,11,13,10,35,986.62
2020,11,13,10,36,986.62
2020,11,13,10,37,986.62
2020,11,13,10,38,986.62
2020,11,13,10,39,986.62
2020,11,13,10,40,986.62
2020,11,13,10,41,986.62
2020,11,13,10,42,986.62
2020,11,13,10,43,986.62
2020,11,13,10,44,986.62
2020,11,13,10,45,987.47
2020,11,13,10,46,987.47
2020,11,13,10,47,987.47
2020,11,13,10,48,987.47
2020,11,13,10,49,987.47
2020,11,13,10,50,987.47
2020,11,13,10,51,987.47
2020,11,13,10,52,987.47
2020,11,13,10,53,987.47
2020,11,13,10,54,987.47
2020,11,13,10,55,987.47
2020,11,13,10,56,987.47
2020,11,13,10,57,987.47
2020,11,13,10,58,987.47
2020,11,13,10,59,987.47
2020,11,13,11,00,988.02
2020,11,13,11,01,988.05
2020,11,13,11,02,988.05
2020,11,13,11,03,988.05
2020,11,13,11,04,988.05
2020,11,13,11,05,988.05
2020,11,13,11,06,988.05
2020,11,13,11,07,988.05
2020,11,13,11,08,988.05
2020,11,13,11,09,988.05
2020,11,13,11,10,988.05
2020,11,13,11,11,988.05
2020,11,13,11,12,988.05
2020,11,13,11,13,988.05
2020,11,13,11,14,988.05
2020,11,13,11,15,988.53
2020,11,13,11,16,988.55
2020,11,13,11,17,988.55
2020,11,13,11,18,988.55
2020,11,13,11,19,988.55
2020,11,13,11,20,988.55
2020,11,13,11,21,988.55
2020,11,13,11,22,988.55
2020,11,13,11,23,988.55
2020,11,13,11,24,988.55
2020,11,13,11,25,988.55
2020,11,13,11,26,988.55
2020,11,13,11,27,988.55
2020,11,13,11,28,988.55
2020,11,13,11,29,988.55
2020,11,13,11,30,988.85
2020,11,13,11,31,988.86
2020,11,13,11,32,988.86
2020,11,13,11,33,988.86
2020,11,13,11,34,988.86
2020,11,13,11,35,988.86
2020,11,13,11,36,988.86
2020,11,13,11,37,988.86
2020,11,13,11,38,988.86
2020,11,13,11,39,988.86
2020,11,13,11,40,988.86
2020,11,13,11,41,988.86
2020,11,13,11,42,988.86
2020,11,13,11,43,988.86
2020,11,13,11,44,988.86
2020,11,13,11,45,989.16
2020,11,13,11,46,989.16
2020,11,13,11,47,989.16
2020,11,13,11,48,989.16
2020,11,13,11,49,989.16
2020,11,13,11,50,989.16
2020,11,13,11,51,989.16
2020,11,13,11,52,989.16
2020,11,13,11,53,989.16
2020,11,13,11,54,989.16
2020,11,13,11,55,989.16
2020,11,13,11,56,989.16
2020,11,13,11,57,989.16
2020,11,13,11,58,989.16
2020,11,13,11,59,989.16
2020,11,13,12,00,989.58
2020,11,13,12,01,989.60
2020,11,13,12,02,989.60
2020,11,13,12,03,989.60
2020,11,13,12,04,989.60
2020,11,13,12,05,989.60
2020,11,13,12,06,989.60
2020,11,13,12,07,989.60
2020,11,13,12,08,989.60
2020,11,13,12,09,989.60
2020,11,13,12,10,989.60
2020,11,13,12,11,989.60
2020,11,13,12,12,989.60
2020,11,13,12,13,989.60
2020,11,13,12,14,989.60
2020,11,13,12,15,990.04
2020,11,13,12,16,990.04
2020,11,13,12,17,990.04
2020,11,13,12,18,990.04
2020,11,13,12,19,990.04
2020,11,13,12,20,990.04
2020,11,13,12,21,990.04
2020,11,13,12,22,990.04
2020,11,13,12,23,990.04
2020,11,13,12,24,990.04
2020,11,13,12,25,990.04
2020,11,13,12,26,990.04
2020,11,13,12,27,990.04
2020,11,13,12,28,990.04
2020,11,13,12,29,990.04
2020,11,13,12,30,990.36
2020,11,13,12,31,990.38
2020,11,13,12,32,990.38
2020,11,13,12,33,990.38
2020,11,13,12,34,990.38
2020,11,13,12,35,990.38
2020,11,13,12,36,990.38
2020,11,13,12,37,990.38
2020,11,13,12,38,990.38
2020,11,13,12,39,990.38
2020,11,13,12,40,990.38
2020,11,13,12,41,990.38
2020,11,13,12,42,990.38
2020,11,13,12,43,990.38
2020,11,13,12,44,990.38
2020,11,13,12,45,990.82
2020,11,13,12,46,990.82
2020,11,13,12,47,990.82
2020,11,13,12,48,990.82
2020,11,13,12,49,990.82
2020,11,13,12,50,990.82
2020,11,13,12,51,990.82
2020,11,13,12,52,990.82
2020,11,13,12,53,990.82
2020,11,13,12,54,990.82
2020,11,13,12,55,990.82
2020,11,13,12,56,990.82
2020,11,13,12,57,990.82
2020,11,13,12,58,990.82
2020,11,13,12,59,990.82
2020,11,13,13,00,991.23
2020,11,13,13,01,991.23
2020,11,13,13,02,991.23
2020,11,13,13,03,991.23
2020,11,13,13,04,991.23
2020,11,13,13,05,991.23
2020,11,13,13,06,991.23
2020,11,13,13,07,991.23
2020,11,13,13,08,991.23
2020,11,13,13,09,991.23
2020,11,13,13,10,991.23
2020,11,13,13,11,991.23
2020,11,13,13,12,991.23
2020,11,13,13,13,991.23
2020,11,13,13,14,991.23
2020,11,13,13,15,991.74
2020,11,13,13,16,991.74
2020,11,13,13,17,991.74
2020,11,13,13,18,991.74
2020,11,13,13,19,991.74
2020,11,13,13,20,991.74
2020,11,13,13,21,991.74
2020,11,13,13,22,991.74
2020,11,13,13,23,991.74
2020,11,13,13,24,991.74
2020,11,13,13,25,991.74
2020,11,13,13,26,991.74
2020,11,13,13,27,991.74
2020,11,13,13,28,991.74
2020,11,13,13,29,991.74
2020,11,13,13,30,991.77
2020,11,13,13,31,991.77
2020,11,13,13,32,991.77
2020,11,13,13,33,991.77
2020,11,13,13,34,991.77
2020,11,13,13,35,991.77
2020,11,13,13,36,991.77
2020,11,13,13,37,991.77
2020,11,13,13,38,991.77
2020,11,13,13,39,991.77
2020,11,13,13,40,991.77
2020,11,13,13,41,991.77
2020,11,13,13,42,991.77
2020,11,13,13,43,991.77
2020,11,13,13,44,991.77
2020,11,13,13,45,992.38
2020,11,13,13,46,992.38
2020,11,13,13,47,992.38
2020,11,13,13,48,992.38
2020,11,13,13,49,992.38
2020,11,13,13,50,992.38
2020,11,13,13,51,992.38
2020,11,13,13,52,992.38
2020,11,13,13,53,992.38
2020,11,13,13,54,992.38
2020,11,13,13,55,992.38
2020,11,13,13,56,992.38
2020,11,13,13,57,992.38
2020,11,13,13,58,992.38
2020,11,13,13,59,992.38
2020,11,13,14,00,992.77
2020,11,13,14,01,992.79
2020,11,13,14,02,992.79
2020,11,13,14,03,992.79
2020,11,13,14,04,992.79
2020,11,13,14,05,992.79
2020,11,13,14,06,992.79
2020,11,13,14,07,992.79
2020,11,13,14,08,992.79
2020,11,13,14,09,992.79
2020,11,13,14,10,992.79
2020,11,13,14,11,992.79
2020,11,13,14,12,992.79
2020,11,13,14,13,992.79
2020,11,13,14,14,992.79
2020,11,13,14,15,993.28
2020,11,13,14,16,993.30
2020,11,13,14,17,993.30
2020,11,13,14,18,993.30
2020,11,13,14,19,993.30
2020,11,13,14,20,993.30
2020,11,13,14,21,993.30
2020,11,13,14,22,993.30
2020,11,13,14,23,993.30
2020,11,13,14,24,993.30
2020,11,13,14,25,993.30
2020,11,13,14,26,993.30
2020,11,13,14,27,993.30
2020,11,13,14,28,993.30
2020,11,13,14,29,993.30
2020,11,13,14,30,993.84
2020,11,13,14,31,993.87
2020,11,13,14,32,993.87
2020,11,13,14,33,993.87
2020,11,13,14,34,993.87
2020,11,13,14,35,993.87
2020,11,13,14,36,993.87
2020,11,13,14,37,993.87
2020,11,13,14,38,993.87
2020,11,13,14,39,993.87
2020,11,13,14,40,993.87
2020,11,13,14,41,993.87
2020,11,13,14,42,993.87
2020,11,13,14,43,993.87
2020,11,13,14,44,993.87
2020,11,13,14,45,994.28
2020,11,13,14,46,994.28
2020,11,13,14,47,994.28
2020,11,13,14,48,994.28
2020,11,13,14,49,994.28
2020,11,13,14,50,994.28
2020,11,13,14,51,994.28
2020,11,13,14,52,994.28
2020,11,13,14,53,994.28
2020,11,13,14,54,994.28
2020,11,13,14,55,994.28
2020,11,13,14,56,994.28
2020,11,13,14,57,994.28
2020,11,13,14,58,994.28
2020,11,13,14,59,994.28
2020,11,13,15,00,994.66
2020,11,13,15,01,994.68
2020,11,13,15,02,994.68
2020,11,13,15,03,994.68
2020,11,13,15,04,994.68
2020,11,13,15,05,994.68
2020,11,13,15,06,994.68
2020,11,13,15,07,994.68
2020,11,13,15,08,994.68
2020,11,13,15,09,994.68
2020,11,13,15,10,994.68
2020,11,13,15,11,994.68
2020,11,13,15,12,994.68
2020,11,13,15,13,994.68
2020,11,13,15,14,994.68
2020,11,13,15,15,994.88
2020,11,13,15,16,994.89
2020,11,13,15,17,994.89
2020,11,13,15,18,994.89
2020,11,13,15,19,994.89
2020,11,13,15,20,994.89
2020,11,13,15,21,994.89
2020,11,13,15,22,994.89
2020,11,13,15,23,994.89
2020,11,13,15,24,994.89
2020,11,13,15,25,994.89
2020,11,13,15,26,994.89
2020,11,13,15,27,994.89
2020,11,13,15,28,994.89
2020,11,13,15,29,994.89
2020,11,13,15,30,995.38
2020,11,13,15,31,995.40
2020,11,13,15,32,995.40
2020,11,13,15,33,995.40
2020,11,13,15,34,995.40
2020,11,13,15,35,995.40
2020,11,13,15,36,995.40
2020,11,13,15,37,995.40
2020,11,13,15,38,995.40
2020,11,13,15,39,995.40
2020,11,13,15,40,995.40
2020,11,13,15,41,995.40
2020,11,13,15,42,995.40
2020,11,13,15,43,995.40
2020,11,13,15,44,995.40
2020,11,13,15,45,995.80
2020,11,13,15,46,995.80
2020,11,13,15,47,995.80
2020,11,13,15,48,995.80
2020,11,13,15,49,995.80
2020,11,13,15,50,995.80
2020,11,13,15,51,995.80
2020,11,13,15,52,995.80
2020,11,13,15,53,995.80
2020,11,13,15,54,995.80
2020,11,13,15,55,995.80
2020,11,13,15,56,995.80
2020,11,13,15,57,995.80
2020,11,13,15,58,995.80
2020,11,13,15,59,995.80
2020,11,13,16,00,996.14
2020,11,13,16,01,996.14
2020,11,13,16,02,996.14
2020,11,13,16,03,996.14
2020,11,13,16,04,996.14
2020,11,13,16,05,996.14
2020,11,13,16,06,996.14
2020,11,13,16,07,996.14
2020,11,13,16,08,996.14
2020,11,13,16,09,996.14
2020,11,13,16,10,996.14
2020,11,13,16,11,996.14
2020,11,13,16,12,996.14
2020,11,13,16,13,996.14
2020,11,13,16,14,996.14
2020,11,13,16,15,996.48
2020,11,13,16,16,996.48
2020,11,13,16,17,996.48
2020,11,13,16,18,996.48
2020,11,13,16,19,996.48
2020,11,13,16,20,996.48
2020,11,13,16,21,996.48
2020,11,13,16,22,996.48
2020,11,13,16,23,996.48
2020,11,13,16,24,996.48
2020,11,13,16,25,996.48
2020,11,13,16,26,996.48
2020,11,13,16,27,996.48
2020,11,13,16,28,996.48
2020,11,13,16,29,996.48
2020,11,13,16,30,996.90
2020,11,13,16,31,996.92
2020,11,13,16,32,996.92
2020,11,13,16,33,996.92
2020,11,13,16,34,996.92
2020,11,13,16,35,996.92
2020,11,13,16,36,996.92